STARLINK-37309, 69364

Orbit data source: Space-Track

STARLINK-37309, 69364 is a payload satellite owned by SpaceX/Seattle (US) in LEO that was launched on Thu, 04 Jun 2026 UTC via an FALCON 9 launch vehicle from the Air Force Eastern Test Range (AFETR). Payload-class satellites include a variety of spacecraft equipped with specific instruments for various scientific and technological missions. These include communications satellites like Starlink; space stations such as the ISS; scientific satellites like the Hubble; Earth observation satellites from companies like Planet Labs, Umbra, and HawkEye 360; GPS; miniature CubeSats for education and research; and military/defense satellites.

Loading next visibility...
Identifier
69364, 2026-123M
Orbit
LEO
Country
Flag of USUS
Related business
Manufacturer
SpaceX/Seattle
Mission
Operational spacecraft
Bus & Motor
STARLINK V2MO, Unknown motor
Mass
575 kg wet, ~530 kg dry
Launch date (UTC)
2026-06-04 (2 months ago)
Launch vehicle
FALCON 9
Launch site
Air Force Eastern Test Range (AFETR)
Object type
Payload
Rocket body
Debris
Shape & HBR
Unknown shape, 17.7 m
Radar Cross Section
Large (>1 m²)

Expand to show TLE details & history
Last TLE update: 19 hours ago

TLE from 19 hours ago
0 STARLINK-37309
1 69364U 26123M   26201.92785833  .00134675  00000-0  86708-3 0  9996
2 69364  53.1586  73.4050 0000327 100.6352 259.4706 15.75284147  7369
Epoch: 2026-07-20T22:16Z
TLE epoch observation values (Epoch: 2026-07-20T22:16:06.959Z)
Latitude
0.00004°
Longitude
160.67116°
Altitude
344.78 km
Speed
7.703 km/s
True Right ascension
04h 53m 37s
True Declination
0° 00' 00"
Sunlit
Object was in daylight at epoch
Visualization orbit readout
Latitude
Unknown
Longitude
Unknown
Altitude
Unknown
Speed
Unknown
Apparent Right ascension
Unknown
Apparent Declination
Unknown
Sunlit
N/A
Visualization observer readout
Local Sidereal Time
05:49:41
Azimuth
Unknown
Elevation
Unknown
Doppler factor
Unknown
Orbital elements
Apogee altitude
344.304 km
Perigee altitude
343.864 km
Semi-major axis
6,722.221 km
Eccentricity
0.00003
Inclination
53.1586°
RAAN
73.405°
Arg. of periapsis
100.6352°
True anomaly
259.46692°
Mean anomaly
259.4706°
Eccentric anomaly
259.46876°
Mean motion
3.93798 °/min
Orbital period
91.42 mins
BSTAR
0.00086708
Loading maneuver chart data...
Computing Atmospheric mass density...
Loading historical data...
Loading historical data...
Loading historical data...
Loading historical data...
Loading historical data...
Loading historical data...
Loading historical data...

Documentation

Showing up to 5 results
|